#timestamp,LO_Frequency,Hit 
1500235215.5,286047000.4,N
1500235235.3,286047000.0,N
1500235255.2,286047000.9,N
1500235275.0,286047000.9,N
1500235275.9,286047000.9,N
1500235295.7,286047002.3,N
1500235315.6,286047002.6,N
1500235335.4,286047002.5,N
1500235355.3,286047002.4,N
1500235375.1,286047002.2,N
1500235376.0,286047002.2,N
1500235395.8,286047000.1,N
1500235415.7,286047002.5,N
1500235435.5,286046999.7,N
1500235455.3,286047002.7,N
1500235475.2,286047002.3,N
1500235495.0,286047002.2,N
1500235495.9,286047002.2,N
1500235515.8,286047001.8,N
1500235535.6,286047002.4,N
1500235555.4,286047000.1,N
1500235575.3,286047002.6,N
1500235595.1,286047001.4,N
1500235615.8,286047001.3,N
1500235635.7,286047003.5,N
1500235655.5,286047004.1,N
1500235675.4,286047003.2,N
1500235695.2,286047003.3,N
1500235715.0,286047003.1,N
1500235715.9,286047003.1,N
1500235735.8,286047005.7,N
1500235755.6,286047002.9,N
1500235775.5,286047004.7,N
1500235795.3,286047005.4,N
1500235815.1,286047005.5,N
1500235835.9,286047005.7,N
1500235855.7,286047003.0,N
1500235875.5,286047005.2,N
1500235895.4,286047005.7,N
1500235915.2,286047003.0,N
1500235935.1,286047003.5,N
1500235936.0,286047003.5,N
1500235955.8,286047003.8,N
1500235975.6,286047003.7,N
1500235995.5,286047003.6,N
1500236015.3,286047003.0,N
1500236035.1,286047003.8,N
1500236055.9,286047003.7,N
1500236075.7,286047001.3,N
1500236095.6,286047001.6,N
1500236115.4,286047002.4,N
1500236135.2,286046999.7,N
1500236155.1,286047002.6,N
1500236156.0,286047002.6,N
1500236175.8,286047002.5,N
1500236195.7,286047002.3,N
1500236215.5,286047002.8,N
1500236235.3,286047002.8,N
1500236255.2,286047000.1,N
1500236275.0,286046999.9,N
1500236275.9,286046999.9,N
1500236295.8,286047001.0,N
1500236315.6,286047000.7,N
1500236335.4,286046998.1,N
1500236355.3,286046998.9,N
1500236375.1,286046999.2,N
1500236395.8,286046996.6,N
1500236415.7,286046999.5,N
1500236435.5,286046997.0,N
1500236455.4,286046999.1,N
1500236475.2,286046996.7,N
1500236495.0,286046997.7,N
1500236495.9,286046997.7,N
1500236515.8,286046997.8,N
1500236535.6,286046997.6,N
1500236555.5,286046998.0,N
1500236575.3,286046997.9,N
1500236595.1,286046995.8,N
1500236615.9,286046995.5,N
1500236635.7,286046994.0,N
1500236655.6,286046996.3,N
1500236675.4,286046994.0,N
1500236695.2,286046994.2,N
1500236715.1,286046991.9,N
1500236716.0,286046991.9,N
1500236735.8,286046994.5,N
1500236755.7,286046993.6,N
1500236775.5,286046993.4,N
1500236795.3,286046993.4,N
1500236815.2,286046996.0,N
1500236835.9,286046993.6,N
1500236855.7,286046996.4,N
1500236875.6,286046993.8,N
1500236895.4,286046994.6,N
1500236915.3,286046991.8,N
1500236935.1,286046992.4,N
1500236936.0,286046992.4,N
1500236955.8,286046992.4,N
1500236975.7,286046994.5,N
1500236995.5,286046992.2,N
1500237015.3,286046992.3,N
1500237035.2,286046990.3,N
1500237055.0,286046990.6,N
1500237055.9,286046990.6,N
1500237075.8,286046993.1,N
1500237095.6,286046990.1,N
1500237115.4,286046992.2,N
1500237135.3,286046993.0,N
1500237155.1,286046993.0,N
1500237175.9,286046992.8,N
1500237195.7,286046990.2,N
1500237215.5,286046992.3,N
1500237235.4,286046992.1,N
1500237255.2,286046994.3,N
1500237275.0,286046994.1,N
1500237275.9,286046994.1,N
1500237295.8,286046991.9,N
1500237315.6,286046992.5,N
1500237335.5,286046993.0,N
1500237355.3,286046992.4,N
1500237375.1,286046992.4,N
1500237395.9,286046992.2,N
1500237415.7,286046992.0,N
1500237435.6,286046990.5,N
1500237455.4,286046992.7,N
1500237475.2,286046990.5,N
1500237495.1,286046992.8,N
1500237496.0,286046992.8,N
1500237515.8,286046993.2,N
1500237535.6,286046993.2,N
1500237555.5,286046990.1,N
1500237575.3,286046992.5,N
1500237595.2,286046991.9,N
1500237615.0,286046992.9,N
1500237615.9,286046992.9,N
1500237635.8,286046992.4,N
1500237655.6,286046993.2,N
1500237675.4,286046990.1,N
1500237695.3,286046993.1,N
1500237715.1,286046993.2,N
1500237735.9,286046990.6,N
1500237755.7,286046992.8,N
1500237775.5,286046992.9,N
1500237795.4,286046992.6,N
1500237815.2,286046992.2,N
1500237835.0,286046994.8,N
1500237835.9,286046994.8,N
1500237855.8,286046996.4,N
1500237875.6,286046994.2,N
1500237895.5,286046993.8,N
1500237915.3,286046994.6,N
1500237935.1,286046994.6,N
1500237955.9,286046993.6,N
1500237975.7,286046994.3,N
1500237995.5,286046994.4,N
1500238015.4,286046994.6,N
1500238035.2,286046993.4,N
1500238055.1,286046996.4,N
1500238056.0,286046996.4,N
1500238075.8,286046993.9,N
1500238095.6,286046993.6,N
1500238115.5,286046993.7,N
1500238135.3,286046994.0,N
1500238155.1,286046993.6,N
1500238175.9,286046995.2,N
1500238195.7,286046993.3,N
1500238215.6,286046993.3,N
1500238235.4,286046995.1,N
1500238255.2,286046997.6,N
1500238275.1,286046997.4,N
1500238276.0,286046997.4,N
1500238295.8,286046996.5,N
1500238315.7,286046999.5,N
1500238335.5,286046996.8,N
1500238355.3,286046997.1,N
1500238375.2,286046996.7,N
1500238395.0,286046996.6,N
1500238395.9,286046996.6,N
1500238415.7,286046996.5,N
1500238435.6,286046996.6,N
1500238455.4,286046999.1,N
1500238475.3,286047001.2,N
1500238495.1,286046999.4,N
1500238515.8,286046996.5,N
1500238535.7,286046999.1,N
1500238555.5,286046998.6,N
1500238575.4,286046999.5,N
1500238595.2,286046996.6,N
1500238615.0,286046996.9,N
1500238615.9,286046996.9,N
1500238635.8,286046999.1,N
1500238655.6,286046998.3,N
1500238675.4,286047001.1,N
1500238695.3,286046998.7,N
1500238715.1,286046999.3,N
1500238735.9,286046999.4,N
1500238755.7,286046998.9,N
1500238775.5,286047001.0,N
1500238795.4,286047000.9,N
